Location: T. Spence Memorial Observatory
(32.7356°N, 82.2098°W)
Time: 06:51:00
(UTC-04:00)

Daily predictions for brighter satellites

Satellite Brightness Start Highest point End
(mag) Time Altitude Azimuth Time Altitude Azimuth Time Altitude Azimuth
Cosmos 1898 Rocket 3.5 20:53:07 10° SSW 20:58:22 84° ESE 21:03:43 10° NNE
Cosmos 2112 Rocket 4.1 20:53:08 10° NNW 20:58:30 79° ENE 21:03:50 10° SSE
Cosmos 1680 Rocket 3.7 20:55:25 10° NNW 21:00:45 83° WSW 21:06:03 10° SSE
CENTAUR R/B 3.5 20:56:38 10° SSE 21:00:52 21° ESE 21:05:23 10° ENE
Cosmos 990 Rocket 4.2 20:56:28 10° S 21:01:28 51° ESE 21:06:31 10° NNE
ISS -3.9 21:02:48 10° SW 21:06:00 65° SE 21:09:13 10° NE
Cosmos 1891 Rocket 4.5 21:01:55 10° N 21:08:03 78° E 21:14:16 10° S
Tsikada Rocket 4.0 21:05:17 10° S 21:11:28 69° E 21:17:36 10° NNE
YAOGAN 6 4.1 21:12:45 11° ESE 21:15:29 22° ENE 21:18:23 10° NNE
USA 186 1.3 21:18:36 10° S 21:21:06 78° W 21:23:50 10° NNW
Tiangong 2 3.3 21:19:50 10° NW 21:22:17 20° NNE 21:24:44 10° ENE
Hubble Space Telescope 2.2 21:19:32 10° WSW 21:23:01 26° SSW 21:25:52 13° SE
Meteor 2-3 Rocket 3.8 21:19:16 10° S 21:24:53 59° E 21:30:28 10° NNE
Meteor 2-10 Rocket 3.8 21:20:41 10° N 21:26:33 89° ENE 21:32:19 10° S
Cosmos 2034 Rocket 4.1 21:20:37 10° N 21:26:49 84° W 21:32:58 10° S
GPS 2-04 Rocket1 3.0 21:23:17 10° W 21:26:59 56° N 21:30:31 10° ENE
COSMOS 2487 2.9 21:26:16 10° NNW 21:29:47 61° WSW 21:33:15 10° S
OAO 2 Rocket 3.3 21:25:15 10° WNW 21:30:19 77° SSW 21:34:09 17° ESE
Meteor 1-26 Rocket 4.3 21:25:07 10° N 21:30:42 59° E 21:36:22 10° SSE
Helios 1B rocket 2.4 21:30:04 10° NNE 21:34:07 58° E 21:38:08 10° S
H-2A R/B 4.1 21:32:58 10° E 21:34:47 12° ENE 21:36:34 10° NE
Cosmos 1634 Rocket 4.5 21:30:01 10° N 21:35:58 42° E 21:40:43 16° SE
Cosmos 2082 Rocket 3.2 21:31:53 10° NW 21:37:15 45° WSW 21:42:36 10° S
Cosmos 1937 Rocket 4.2 21:32:19 10° SSW 21:37:21 57° WNW 21:42:25 10° N
CZ-4B DEB 3.6 21:37:46 24° ESE 21:38:38 28° ENE 21:41:13 10° NNE
Cosmos 2344 4.1 21:31:57 10° S 21:38:44 33° ESE 21:45:33 10° NE
SL-19 R/B 4.4 21:34:51 10° SSE 21:40:24 75° ENE 21:46:24 10° N
Cosmos 1408 3.9 21:42:05 21° ESE 21:42:35 22° E 21:45:30 10° NE
Cosmos 1825 3.4 21:45:47 23° E 21:46:12 23° E 21:49:15 10° NE
Cosmos 1833 Rocket 4.0 21:43:16 10° NW 21:48:23 37° WSW 21:53:28 10° S
Meteor 1-29 2.8 21:45:35 10° NNE 21:49:05 71° E 21:52:12 12° S
TIMED 4.4 21:44:47 10° S 21:49:07 70° ESE 21:53:28 10° NNE
Aurora 2 Rocket 4.1 21:45:15 10° WSW 21:49:16 21° SSW 21:51:00 17° S
Resurs 01 Rocket 3.6 21:48:17 10° SSW 21:52:03 28° W 21:55:51 10° NW
Shenzhou-11 Module 3.3 21:51:06 10° NW 21:53:55 32° NNE 21:55:05 24° ENE
Helios 1A 3.0 21:55:52 20° S 21:58:45 83° WSW 22:02:58 10° NNW
Molniya-1 4.4 21:57:32 10° SW 21:59:22 29° WNW 22:00:54 10° N
Cosmos 1892 4.0 21:57:01 10° SSW 22:00:39 40° W 22:04:18 10° N
COSMOS 2455 3.3 21:58:09 10° SW 22:04:04 65° WNW 22:10:04 10° NNE
ERS-1 Rocket 3.1 22:03:27 29° SE 22:05:46 55° ENE 22:10:41 10° N
Cosmos 1943 Rocket 2.1 22:03:53 10° S 22:09:23 62° ESE 22:14:53 10° NNE
Cosmos 2279 Rocket 4.3 22:05:03 10° N 22:11:03 47° E 22:13:33 31° SE
Cosmos 2263 4.2 22:06:52 10° SSW 22:12:39 86° ESE 22:18:26 10° NNE
Cosmos 2142 Rocket 4.4 22:10:02 10° N 22:16:11 82° E 22:19:54 25° S
NOAA 11 4.1 22:13:36 31° SSE 22:16:15 72° ENE 22:21:43 10° N
USA 215 3.8 22:19:36 26° E 22:23:00 48° NE 22:29:15 10° NNW
Milstar 3 3.5 22:11:34 10° WSW 22:23:29 56° S 22:27:31 29° ESE
Cosmos 1340 3.7 22:23:11 10° NNE 22:25:58 32° NE 22:25:58 32° NE
Cosmos 2369 Rocket 3.2 22:21:48 10° SW 22:27:13 48° WNW 22:32:42 10° N
Lacrosse 5 rocket 3.2 22:24:12 10° WSW 22:27:15 26° NW 22:30:22 10° NNE
Okean 1-7 2.9 22:23:50 10° N 22:28:15 90° E 22:29:16 53° S
Delta 168 4.1 22:26:26 10° WSW 22:29:26 31° SSW 22:29:26 31° SSW
SPOT 1/Viking Rocket 4.1 22:31:52 38° E 22:32:29 40° ENE 22:37:19 10° N
SL-08 RB Rocket 3.9 22:35:00 53° E 22:35:22 55° ENE 22:39:56 10° N
DNEPR-1 R/B 4.5 22:30:26 10° SW 22:35:54 58° WNW 22:40:31 10° NNE
Cosmos 1606 2.6 22:33:49 10° N 22:37:22 77° N 22:37:22 77° N
Cosmos 468 4.4 22:34:36 10° NNW 22:39:53 83° ENE 22:40:55 58° SSE
ISS -0.4 22:41:15 10° WNW 22:42:45 13° NNW 22:44:16 10° N
Cosmos 372 Rocket 4.3 22:40:36 16° SSW 22:44:39 64° WNW 22:49:44 10° N
Cosmos 1733 Rocket 3.5 22:45:52 48° NE 22:45:52 48° NE 22:49:16 10° NNE
OAO 3 Copernicus 4.2 22:41:04 10° WSW 22:46:07 88° N 22:47:06 59° ENE
Meteor 1-10 Rocket 4.4 22:42:24 10° NNW 22:48:20 77° W 22:50:19 44° S
Cosmos 1269 Rocket 4.0 22:43:09 10° N 22:48:23 62° ENE 22:48:45 60° E
Meteor 1-27 Rocket 3.7 22:42:57 10° N 22:48:38 61° E 22:49:13 57° ESE
Terra 3.2 22:49:48 25° NE 22:49:48 25° NE 22:53:02 10° NNE
Cosmos 1125 Rocket 4.5 22:45:34 10° SW 22:50:35 46° WNW 22:55:37 10° N
CENTAUR R/B 3.3 22:45:10 10° SW 22:50:51 50° NW 22:57:17 10° NNE
Nimbus 7 Rocket 4.3 22:52:10 10° NNE 22:58:05 89° ESE 22:59:43 50° SSW
ATLAS 5 CENTAUR R/B 2.8 22:52:28 10° NNW 22:58:27 52° ENE 22:59:28 48° E
SPOT 5 3.1 22:58:43 64° SSW 22:59:30 78° WSW 23:04:52 10° NNW
Tiangong 2 3.4 22:56:19 10° WNW 22:57:47 25° WNW 22:57:47 25° WNW
Meteor 2-20 4.4 23:03:29 62° ESE 23:03:41 63° E 23:09:42 10° NNE
GPS 2-04 Rocket1 4.3 23:03:19 10° WNW 23:05:16 28° WNW 23:05:16 28° WNW
ARGOS 3.6 23:06:21 48° SW 23:07:21 55° W 23:12:37 10° NNW
Cosmos 1782 4.4 23:06:21 10° NNW 23:09:49 29° W 23:09:53 29° W
Cosmos 1656 Rocket 3.5 23:10:03 88° SSW 23:10:06 90° W 23:15:38 10° NNE
H-2A R/B 2.1 23:13:15 74° SW 23:13:29 76° WSW 23:18:53 10° NNW
Lacrosse 4 Rocket 2.5 23:17:35 10° NNW 23:20:44 44° N 23:20:44 44° N
Cosmos 1092 Rocket 3.8 23:27:20 85° SW 23:27:29 87° W 23:33:39 10° N
Nadezhda 4 Rocket 4.4 23:27:53 45° SW 23:29:23 57° W 23:35:28 10° N
H-2A R/B 4.0 23:37:08 23° N 23:37:08 23° N 23:38:48 10° N
Cosmos 2227 Rocket 4.4 23:37:08 10° NNE 23:39:30 13° NE 23:39:30 13° NE
Cosmos 2219 4.1 23:39:12 10° N 23:43:36 40° NE 23:43:36 40° NE
